Regional Weather Roundup
Issued by NWS New Orleans/Baton Rouge, LA

Home | Current Version | Previous Version | Text Only | Print | Product List | Glossary On
Versions: 1 2 3 4 5 6 7 8 9 10 11 12 13 14 15 16 17 18 19 20 21 22 23 24 25 26 27 28 29 30 31 32 33 34 35 36 37 38 39 40 41 42 43 44 45 46 47 48 49 50
000
ASUS44 KLIX 240414
RWRLIX
NEW ORLEANS REGIONAL WEATHER ROUNDUP
NATIONAL WEATHER SERVICE NEW ORLEANS LA
1100 PM CDT FRI JUN 23 2017

NOTE: "FAIR" INDICATES FEW OR NO CLOUDS BELOW 12,000 FEET WITH NO
      SIGNIFICANT WEATHER AND/OR OBSTRUCTIONS TO VISIBILITY.
      SKY/WX - SKY CONDITION AND SIGNIFICANT WEATHER.
      TMP - AIR TEMPERATURE.     DP    - DEWPOINT TEMPERATURE.
      RH  - RELATIVE HUMIDITY.   PRES  - PRESSURE.
      HI  - HEAT INDEX.          WCI   - WIND CHILL INDEX.

*  THESE STATIONS ARE NOT NWS OR FAA STATIONS AND ARE NOT UNDER
   NWS QUALITY CONTROL.

LAZ038-040-048-061>063-065>067-069-240500-
SOUTHEAST LOUISIANA

CITY           SKY/WX    TMP DP  RH WIND       PRES   REMARKS
N.O. INTL ARPT MOCLDY    81  78  91 S7        29.97R
N.O. LAKEFRONT MOCLDY    82  78  88 S12       29.98R
N.O. DOWNTOWN*   N/A     84  78  82 S5          N/A  HX  95
RESERVE*       CLOUDY    82  79  89 S5        29.97R
SLIDELL        CLOUDY    82  79  90 S5        29.97R
BATON ROUGE    CLOUDY    82  78  88 S5        29.96R
BOOTHVILLE     PTCLDY    82  79  90 S12       29.99S
BELLE CHASSE   MOCLDY    81  80  97 S10       29.97R
BOGALUSA*      CLOUDY    77  73  86 S3        30.00R THUNDER
GALLIANO*      CLOUDY    82  75  81 S6        29.98S
NEW ROADS*       N/A     79  77  94 S5        29.96R
GONZALES*      CLOUDY    81  78  91 S7        29.95S
HAMMOND*       CLOUDY    81  77  89 S3        29.97R
HOUMA*         NOT AVBL
PORT FOURCHON* PTCLDY    82  77  83 S9G15     29.98S

$$

MSZ070-080>082-240500-
SOUTHERN MISSISSIPPI

CITY           SKY/WX    TMP DP  RH WIND       PRES   REMARKS
MCCOMB         CLOUDY    77  74  90 CALM      29.99R
GULFPORT       RAIN      82  78  88 S8        29.98R FOG
BILOXI         MOCLDY    82  77  83 SW14      29.98S
PASCAGOULA     CLOUDY    81  76  84 VRB3      29.99R

$$

COASTAL OBSERVATIONS
LAKE AND NEARSHORE STATIONS

STATION/POSITION TIME  TEMP    WIND        PRES    WAVE
                       AIR SEA DIR/SP/G            HT/PER
                 (UTC) (F)     (DEG/KT/KT) (MB)    (FT/S)
PASCAGOULA       0348   81     200/ 11/ 14 1015.2
WAVELAND YACHT   0348   82 80  210/  8/ 11 1015.3
GRAND ISLE       0348   81 84  200/  7/ 12 1015.5
SOUTHWEST PASS   0348   81     180/ 12/ 14   N/A
NEW CANAL        0348   82 83  210/  8/ 12 1014.9
SHELL BEACH      0348   81 84  190/ 12/ 15 1015.0

OFFSHORE STATIONS

STATION/POSITION TIME  TEMP    WIND        PRES    WAVE
                       AIR SEA DIR/SP/G            HT/PER
                 (UTC) (F)     (DEG/KT/KT) (MB)    (FT/S)
64 S DAUPHIN ISL 0350   81 82  180/ 10/ 14 1015.9    4/ 7

$$




USA.gov is the U.S. government's official web portal to all federal, state and local government web resources and services.